Location: Unspecified
(33.6682°S, 0.0000°E)
Time: 23:12:40
(UTC+00:00)

Vanguard 1 Rocket - All Passes

Search period start: 20 June 2019 00:00
Search period end: 30 June 2019 00:00
Orbit: 652 x 4224 km, 34.3° (Epoch: 19 June)

Date Brightness Start Highest point End Pass type
(mag) Time Alt. Az. Time Alt. Az. Time Alt. Az.
20 Jun - 04:41:30 10° NW 04:49:26 50° NE 05:04:45 10° ESE visible
20 Jun - 07:05:17 10° WNW 07:17:06 89° N 07:40:11 10° E daylight
20 Jun - 09:31:29 10° W 09:48:50 86° NNW 10:15:36 10° ENE daylight
20 Jun - 11:59:53 10° WSW 12:21:40 58° NNW 12:45:58 10° NE daylight
20 Jun - 14:34:22 10° W 14:51:58 24° NW 15:08:07 10° N daylight
21 Jun - 03:32:20 10° NNW 03:38:30 29° NE 03:48:44 10° E visible
21 Jun - 05:54:26 10° WNW 06:04:00 79° NNE 06:23:32 10° ESE visible
21 Jun - 08:19:40 10° W 08:34:00 89° S 08:59:31 10° E daylight
21 Jun - 10:46:47 10° WSW 11:06:32 71° NNW 11:32:41 10° NE daylight
21 Jun - 13:17:26 10° W 13:38:09 37° NW 13:58:51 10° NNE daylight
22 Jun - 02:25:31 10° NNE 02:28:12 12° NE 02:31:24 10° ENE visible
22 Jun - 04:44:09 10° NW 04:51:56 60° NNE 05:07:23 10° ESE visible
22 Jun - 07:08:20 10° W 07:19:57 88° S 07:42:46 10° E daylight
22 Jun - 09:34:27 10° WSW 09:51:26 81° NNW 10:17:58 10° ENE daylight
22 Jun - 12:02:54 10° WSW 12:23:41 50° NW 12:47:30 10° NNE daylight
22 Jun - 14:39:41 10° W 14:53:47 18° NW 15:07:14 10° NNW daylight
23 Jun - 03:34:34 10° NNW 03:40:48 37° NE 03:51:46 10° ESE visible
23 Jun - 05:57:26 10° WNW 06:06:48 85° NNE 06:26:05 10° E visible
23 Jun - 08:22:42 10° W 08:36:46 89° NNW 09:02:02 10° ENE daylight
23 Jun - 10:49:43 10° WSW 11:08:49 63° NNW 11:34:33 10° NE daylight
23 Jun - 13:21:09 10° W 13:40:01 30° NW 13:59:24 10° N daylight
24 Jun - 02:26:16 10° N 02:30:23 18° NE 02:36:01 10° E visible
24 Jun - 04:46:59 10° WNW 04:54:35 70° NNE 05:09:58 10° ESE visible
24 Jun - 07:11:25 10° W 07:22:50 88° S 07:45:22 10° E daylight
24 Jun - 09:37:26 10° WSW 09:53:57 75° NNW 10:20:09 10° ENE daylight
24 Jun - 12:06:06 10° W 12:25:43 42° NW 12:48:40 10° NNE daylight
24 Jun - 14:47:48 10° WNW 14:55:46 12° NW 15:03:39 10° NNW daylight
25 Jun - 03:37:06 10° NW 03:43:16 46° NE 03:54:37 10° ESE visible
25 Jun - 06:00:30 10° W 06:09:42 90° NE 06:28:40 10° E visible
25 Jun - 08:25:44 10° W 08:39:30 85° NNW 09:04:27 10° ENE daylight
25 Jun - 10:52:44 10° WSW 11:11:04 55° NNW 11:36:08 10° NE daylight
25 Jun - 13:25:33 10° W 13:41:58 23° NW 13:59:12 10° N daylight
26 Jun - 02:28:03 10° N 02:32:41 24° NE 02:39:38 10° E visible
26 Jun - 04:49:57 10° WNW 04:57:24 79° NNE 05:12:35 10° E visible
26 Jun - 07:14:30 10° W 07:25:42 89° S 07:47:56 10° E daylight
26 Jun - 09:40:24 10° WSW 09:56:27 68° NNW 10:22:05 10° NE daylight
26 Jun - 12:09:35 10° W 12:27:48 35° NW 12:49:23 10° NNE daylight
27 Jun - 03:39:49 10° NW 03:45:55 57° NNE 03:57:22 10° ESE visible
27 Jun - 06:03:36 10° W 06:12:38 88° S 06:31:17 10° E visible
27 Jun - 08:28:46 10° WSW 08:42:12 79° NNW 09:06:42 10° ENE daylight
27 Jun - 10:55:53 10° W 11:13:20 47° NW 11:37:23 10° NNE daylight
27 Jun - 13:31:12 10° W 13:44:06 17° NW 13:57:43 10° NNW daylight
28 Jun - 02:30:17 10° NNW 02:35:09 32° NE 02:42:51 10° E visible
28 Jun - 04:53:00 10° WNW 05:00:18 86° NNE 05:15:13 10° E visible
28 Jun - 07:17:35 10° W 07:28:34 88° N 07:50:26 10° ENE daylight
28 Jun - 09:43:27 10° WSW 09:58:55 60° NNW 10:23:44 10° NE daylight
28 Jun - 12:13:32 10° W 12:29:57 28° NW 12:49:31 10° N daylight
29 Jun - 01:22:10 10° NNE 01:24:49 14° NE 01:28:01 10° ENE visible
29 Jun - 03:42:42 10° WNW 03:48:41 68° NNE 04:00:06 10° ESE visible
29 Jun - 06:06:43 10° W 06:15:35 87° S 06:33:54 10° E visible
29 Jun - 08:31:48 10° WSW 08:44:52 72° NNW 09:08:45 10° ENE daylight
29 Jun - 10:59:16 10° W 11:15:39 39° NW 11:38:13 10° NNE daylight
29 Jun - 13:40:28 10° WNW 13:46:28 11° NW 13:52:40 10° NNW daylight
